COSMOS 2251 DEB, 36046

Orbit data source: Space-Track

COSMOS 2251 DEB, 36046 is space debris in LEO originally from a launch on Wed, 16 Jun 1993 UTC launched from the Plesetsk Missile And Space Complex (PKMTR). The debris from Iridium 33, an American commercial communications satellite, has been tracked extensively since its accidental collision with the defunct Russian satellite Cosmos 2251 in 2009. This event, occurring at high speed in low Earth orbit (LEO), generated thousands of pieces of space debris, significantly increasing the risk of further collisions. The Iridium 33 debris cloud has impacted space traffic management and orbital debris mitigation strategies, making it a subject of ongoing study in space situational awareness.

Loading next visibility...
Identifier
36046, 1993-036AXH
Orbit
LEO
Country
Flag of CISCIS
Related business
Manufacturer
Unknown
Mission
Spacecraft
Bus & Motor
Unknown
Mass
Unknown
Launch date (UTC)
1993-06-16 (33 years ago)
Launch vehicle
Unknown
Launch site
Plesetsk Missile And Space Complex (PKMTR)
Object type
Payload
Rocket body
Debris
Shape & HBR
Unknown shape, 0.1 m
Radar Cross Section
Small (<0.1 m²)

Expand to show TLE details & history
Last TLE update: 1 day ago

TLE from 1 day ago
0 COSMOS 2251 DEB
1 36046U 93036AXH 26144.76243181  .00001863  00000-0  33632-3 0  9997
2 36046  74.0149 322.1357 0056355  68.1260 309.8183 14.66183522663922
Epoch: 2026-05-24T18:17Z
TLE epoch observation values (Epoch: 2026-05-24T18:17:54.108Z)
Latitude
16.74251°
Longitude
170.21709°
Altitude
649.97 km
Speed
7.548 km/s
True Right ascension
21h 48m 12s
True Declination
16° 38' 47"
Sunlit
Object was in daylight at epoch
Visualization orbit readout
Latitude
Unknown
Longitude
Unknown
Altitude
Unknown
Speed
Unknown
Apparent Right ascension
Unknown
Apparent Declination
Unknown
Sunlit
N/A
Visualization observer readout
Local Sidereal Time
04:07:46
Azimuth
Unknown
Elevation
Unknown
Doppler factor
Unknown
Orbital elements
Apogee altitude
710.595 km
Perigee altitude
631.146 km
Semi-major axis
7,049.008 km
Eccentricity
0.00564
Inclination
74.0149°
RAAN
322.1357°
Arg. of periapsis
68.126°
True anomaly
309.32005°
Mean anomaly
309.8183°
Eccentric anomaly
309.5694°
Mean motion
3.66734 °/min
Orbital period
98.16 mins
BSTAR
0.00033632

Documentation

Showing up to 5 results
|